• en Suisse
  • Liste des pays
  • À 7 jours
  • Température de l'eau
  • Carte satellitaire
  • Carte météo
  • Widgets météo
  • user-avatar
    Se connecter

    Météo par heure à Lozovka

    Ce jour, 19 Septembre, Mercredi

    Heure Température Précipitation Vent Pression Humidité
    00:00 +17°C° 0 mm 2 m/s 751 mmHg 84%
    01:00 +16°C° 0 mm 2 m/s 750 mmHg 86%
    02:00 +16°C° 0 mm 2 m/s 750 mmHg 87%
    03:00 +16°C° 0 mm 2 m/s 750 mmHg 88%
    04:00 +15°C° 0 mm 2 m/s 750 mmHg 89%
    05:00 +14°C° 0 mm 3 m/s 750 mmHg 90%
    06:00 +16°C° 0 mm 3 m/s 750 mmHg 86%
    07:00 +17°C° 0 mm 3 m/s 750 mmHg 82%
    08:00 +18°C° 0 mm 3 m/s 750 mmHg 77%
    09:00 +20°C° 0 mm 3 m/s 750 mmHg 71%
    10:00 +22°C° 0 mm 4 m/s 750 mmHg 64%
    11:00 +23°C° 0 mm 4 m/s 751 mmHg 58%
    12:00 +25°C° 0 mm 4 m/s 750 mmHg 54%
    13:00 +26°C° 0 mm 4 m/s 750 mmHg 50%
    14:00 +27°C° 0 mm 4 m/s 750 mmHg 47%
    15:00 +27°C° 0 mm 3 m/s 750 mmHg 50%
    16:00 +26°C° 0 mm 3 m/s 750 mmHg 53%
    17:00 +26°C° 0 mm 2 m/s 750 mmHg 56%
    18:00 +24°C° 0 mm 2 m/s 750 mmHg 59%
    19:00 +23°C° 0 mm 2 m/s 750 mmHg 63%
    20:00 +20°C° 0 mm 2 m/s 750 mmHg 66%
    21:00 +19°C° 0 mm 2 m/s 750 mmHg 67%
    22:00 +19°C° 0 mm 2 m/s 750 mmHg 68%
    23:00 +18°C° 0 mm 2 m/s 750 mmHg 69%

    Demain, 20 Septembre, Jeudi

    Heure Température Précipitation Vent Pression Humidité
    00:00 +18°C° 0 mm 2 m/s 750 mmHg 71%
    01:00 +17°C° 0 mm 2 m/s 750 mmHg 72%
    02:00 +17°C° 0 mm 2 m/s 751 mmHg 73%
    03:00 +17°C° 0 mm 2 m/s 750 mmHg 75%
    04:00 +16°C° 0 mm 2 m/s 750 mmHg 76%
    05:00 +16°C° 0 mm 2 m/s 750 mmHg 78%
    06:00 +17°C° 0 mm 2 m/s 751 mmHg 76%
    07:00 +18°C° 0 mm 2 m/s 751 mmHg 74%
    08:00 +19°C° 0 mm 2 m/s 751 mmHg 72%
    09:00 +21°C° 0 mm 2 m/s 751 mmHg 66%
    10:00 +24°C° 0 mm 2 m/s 751 mmHg 61%
    11:00 +26°C° 0 mm 2 m/s 751 mmHg 55%
    12:00 +26°C° 0 mm 2 m/s 751 mmHg 52%
    13:00 +27°C° 0 mm 2 m/s 751 mmHg 50%
    14:00 +28°C° 0 mm 2 m/s 751 mmHg 47%
    15:00 +28°C° 0 mm 2 m/s 750 mmHg 50%
    16:00 +27°C° 0 mm 2 m/s 750 mmHg 52%
    17:00 +27°C° 0 mm 1 m/s 750 mmHg 55%
    18:00 +25°C° 0 mm 2 m/s 750 mmHg 58%
    19:00 +23°C° 0 mm 2 m/s 750 mmHg 62%
    20:00 +20°C° 0 mm 2 m/s 750 mmHg 66%
    21:00 +20°C° 0 mm 2 m/s 750 mmHg 67%
    22:00 +19°C° 0 mm 2 m/s 750 mmHg 68%
    23:00 +19°C° 0 mm 2 m/s 750 mmHg 70%

    Après-demain, 21 Septembre, Vendredi

    Heure Température Précipitation Vent Pression Humidité
    00:00 +18°C° 0 mm 2 m/s 750 mmHg 71%
    01:00 +18°C° 0 mm 2 m/s 750 mmHg 72%
    02:00 +17°C° 0 mm 2 m/s 750 mmHg 73%
    03:00 +17°C° 0 mm 2 m/s 750 mmHg 74%
    04:00 +17°C° 0 mm 2 m/s 750 mmHg 75%
    05:00 +16°C° 0 mm 2 m/s 750 mmHg 76%
    06:00 +17°C° 0 mm 2 m/s 750 mmHg 74%
    07:00 +18°C° 0 mm 2 m/s 750 mmHg 72%
    08:00 +18°C° 0 mm 2 m/s 750 mmHg 70%
    09:00 +20°C° 0 mm 3 m/s 750 mmHg 64%
    10:00 +22°C° 0 mm 3 m/s 750 mmHg 58%
    11:00 +25°C° 0 mm 3 m/s 750 mmHg 52%
    12:00 +26°C° 0 mm 4 m/s 749 mmHg 50%
    13:00 +26°C° 0 mm 4 m/s 749 mmHg 48%
    14:00 +27°C° 0 mm 5 m/s 749 mmHg 46%
    15:00 +27°C° 0 mm 4 m/s 748 mmHg 49%
    16:00 +26°C° 0 mm 4 m/s 748 mmHg 52%
    17:00 +26°C° 0 mm 3 m/s 747 mmHg 56%
    18:00 +24°C° 0 mm 3 m/s 747 mmHg 59%
    19:00 +22°C° 0 mm 4 m/s 747 mmHg 63%
    20:00 +20°C° 0 mm 4 m/s 746 mmHg 66%
    21:00 +20°C° 0 mm 4 m/s 746 mmHg 67%
    22:00 +20°C° 0 mm 4 m/s 746 mmHg 68%
    23:00 +19°C° 0 mm 5 m/s 746 mmHg 69%

    22 Septembre, Samedi

    Heure Température Précipitation Vent Pression Humidité
    00:00 +19°C° 0 mm 5 m/s 745 mmHg 70%
    01:00 +19°C° 0 mm 5 m/s 745 mmHg 71%
    02:00 +19°C° 0 mm 5 m/s 745 mmHg 71%
    03:00 +17°C° 0 mm 5 m/s 744 mmHg 71%
    04:00 +17°C° 0 mm 5 m/s 744 mmHg 70%
    05:00 +17°C° 0 mm 5 m/s 744 mmHg 70%
    06:00 +17°C° 0 mm 5 m/s 744 mmHg 67%
    07:00 +19°C° 0 mm 5 m/s 744 mmHg 65%
    08:00 +19°C° 0 mm 5 m/s 744 mmHg 63%
    09:00 +19°C° 0 mm 5 m/s 745 mmHg 64%
    10:00 +19°C° 0 mm 6 m/s 745 mmHg 66%
    11:00 +20°C° 0 mm 6 m/s 746 mmHg 67%
    12:00 +17°C° 0.2 mm 6 m/s 747 mmHg 70%
    13:00 +16°C° 0.2 mm 5 m/s 747 mmHg 74%
    14:00 +14°C° 0.2 mm 5 m/s 748 mmHg 78%
    15:00 +14°C° 0.1 mm 4 m/s 748 mmHg 78%
    16:00 +13°C° 0.1 mm 4 m/s 749 mmHg 79%
    17:00 +13°C° 0.1 mm 3 m/s 749 mmHg 80%
    18:00 +13°C° 0.1 mm 3 m/s 749 mmHg 80%
    19:00 +12°C° 0.1 mm 3 m/s 750 mmHg 80%
    20:00 +12°C° 0.1 mm 3 m/s 750 mmHg 79%
    21:00 +12°C° 0 mm 3 m/s 750 mmHg 78%
    22:00 +11°C° 0 mm 3 m/s 750 mmHg 76%
    23:00 +11°C° 0 mm 3 m/s 750 mmHg 75%

    23 Septembre, Dimanche

    Heure Température Précipitation Vent Pression Humidité
    00:00 +11°C° 0 mm 3 m/s 750 mmHg 74%
    01:00 +10°C° 0 mm 3 m/s 750 mmHg 73%
    02:00 +10°C° 0 mm 3 m/s 750 mmHg 73%
    03:00 +9°C° 0 mm 3 m/s 750 mmHg 75%
    04:00 +9°C° 0 mm 2 m/s 750 mmHg 77%
    05:00 +8°C° 0 mm 2 m/s 750 mmHg 80%
    06:00 +9°C° 0 mm 2 m/s 750 mmHg 78%
    07:00 +9°C° 0 mm 3 m/s 750 mmHg 76%
    08:00 +10°C° 0 mm 3 m/s 751 mmHg 74%
    09:00 +12°C° 0 mm 3 m/s 751 mmHg 66%
    10:00 +13°C° 0 mm 4 m/s 751 mmHg 57%
    11:00 +15°C° 0 mm 4 m/s 751 mmHg 49%
    12:00 +17°C° 0 mm 4 m/s 751 mmHg 47%
    13:00 +16°C° 0 mm 5 m/s 750 mmHg 45%
    14:00 +17°C° 0 mm 5 m/s 750 mmHg 43%
    15:00 +17°C° 0 mm 4 m/s 750 mmHg 45%
    16:00 +17°C° 0 mm 3 m/s 750 mmHg 47%
    17:00 +17°C° 0 mm 2 m/s 750 mmHg 49%
    18:00 +15°C° 0 mm 2 m/s 750 mmHg 52%
    19:00 +14°C° 0 mm 2 m/s 750 mmHg 55%
    20:00 +12°C° 0 mm 1 m/s 750 mmHg 58%
    21:00 +12°C° 0 mm 2 m/s 749 mmHg 59%
    22:00 +10°C° 0 mm 2 m/s 749 mmHg 61%
    23:00 +10°C° 0 mm 2 m/s 749 mmHg 63%

    24 Septembre, Lundi

    Heure Température Précipitation Vent Pression Humidité
    00:00 +10°C° 0 mm 2 m/s 748 mmHg 63%
    01:00 +9°C° 0 mm 3 m/s 748 mmHg 64%
    02:00 +9°C° 0 mm 3 m/s 747 mmHg 64%
    03:00 +10°C° 0 mm 4 m/s 747 mmHg 64%
    04:00 +10°C° 0 mm 4 m/s 746 mmHg 63%
    05:00 +9°C° 0 mm 5 m/s 745 mmHg 63%
    06:00 +10°C° 0 mm 5 m/s 745 mmHg 62%
    07:00 +10°C° 0 mm 6 m/s 745 mmHg 62%
    08:00 +10°C° 0 mm 6 m/s 744 mmHg 62%
    09:00 +12°C° 0 mm 7 m/s 744 mmHg 59%
    10:00 +13°C° 0 mm 8 m/s 743 mmHg 56%
    11:00 +15°C° 0 mm 9 m/s 742 mmHg 53%
    12:00 +15°C° 0 mm 8 m/s 742 mmHg 57%
    13:00 +14°C° 0 mm 7 m/s 741 mmHg 61%
    14:00 +14°C° 0 mm 6 m/s 741 mmHg 64%
    15:00 +14°C° 0 mm 5 m/s 740 mmHg 64%
    16:00 +15°C° 0 mm 5 m/s 740 mmHg 63%
    17:00 +17°C° 0 mm 4 m/s 740 mmHg 63%
    18:00 +16°C° 1 mm 3 m/s 740 mmHg 71%
    19:00 +14°C° 1 mm 3 m/s 740 mmHg 79%
    20:00 +14°C° 1 mm 2 m/s 740 mmHg 88%
    21:00 +14°C° 0.3 mm 2 m/s 740 mmHg 89%
    22:00 +12°C° 0.3 mm 3 m/s 740 mmHg 90%
    23:00 +12°C° 0.3 mm 3 m/s 740 mmHg 91%
    Voir plus